• In Deutschland
  • Länderverzeichnis
  • Für 7 Tage
  • Wassertemperatur
  • Satellitenkarten
  • Wetterkarte
  • Widgets
  • user-avatar
    Anmelden

    Stündliche Wetter Bad Schwartau

    Heute, 17 Dezember, Sonntag

    Zeit Temperatur Niederschläge Wind Luftdruck Luftfeuchtigkeit
    00:00 -1°C° 0 mm 4 m/S 756 mmHg 89%
    01:00 -2°C° 0 mm 4 m/S 757 mmHg 89%
    02:00 -2°C° 0 mm 4 m/S 757 mmHg 87%
    03:00 -2°C° 0 mm 4 m/S 757 mmHg 86%
    04:00 -2°C° 0 mm 4 m/S 758 mmHg 85%
    05:00 -2°C° 0 mm 4 m/S 759 mmHg 85%
    06:00 -2°C° 0 mm 4 m/S 759 mmHg 86%
    07:00 -2°C° 0 mm 4 m/S 760 mmHg 86%
    08:00 -2°C° 0 mm 4 m/S 761 mmHg 86%
    09:00 -1°C° 0 mm 4 m/S 761 mmHg 86%
    10:00 -1°C° 0 mm 4 m/S 762 mmHg 87%
    11:00 +1°C° 0 mm 3 m/S 762 mmHg 85%
    12:00 +1°C° 0 mm 3 m/S 763 mmHg 83%
    13:00 +2°C° 0 mm 3 m/S 763 mmHg 81%
    14:00 +1°C° 0 mm 3 m/S 763 mmHg 84%
    15:00 +1°C° 0 mm 2 m/S 764 mmHg 87%
    16:00 -1°C° 0 mm 2 m/S 764 mmHg 89%
    17:00 -1°C° 0 mm 3 m/S 764 mmHg 90%
    18:00 -1°C° 0 mm 3 m/S 764 mmHg 90%
    19:00 -1°C° 0 mm 3 m/S 764 mmHg 91%
    20:00 -1°C° 0 mm 3 m/S 764 mmHg 91%
    21:00 -2°C° 0 mm 4 m/S 764 mmHg 91%
    22:00 -2°C° 0 mm 4 m/S 764 mmHg 91%
    23:00 -1°C° 0 mm 5 m/S 764 mmHg 91%

    Morgen, 18 Dezember, Montag

    Zeit Temperatur Niederschläge Wind Luftdruck Luftfeuchtigkeit
    00:00 -1°C° 0 mm 5 m/S 763 mmHg 91%
    01:00 -1°C° 0 mm 5 m/S 763 mmHg 91%
    02:00 -1°C° 0,3 mm 5 m/S 762 mmHg 90%
    03:00 -1°C° 0,3 mm 6 m/S 762 mmHg 90%
    04:00 -1°C° 0,3 mm 6 m/S 761 mmHg 89%
    05:00 -1°C° 0,4 mm 6 m/S 761 mmHg 90%
    06:00 -1°C° 0,4 mm 6 m/S 761 mmHg 90%
    07:00 0°C° 0,4 mm 5 m/S 761 mmHg 91%
    08:00 0°C° 0,2 mm 5 m/S 762 mmHg 92%
    09:00 0°C° 0,2 mm 4 m/S 762 mmHg 93%
    10:00 +1°C° 0,2 mm 3 m/S 762 mmHg 94%
    11:00 +1°C° 0 mm 3 m/S 763 mmHg 93%
    12:00 +2°C° 0 mm 3 m/S 763 mmHg 93%
    13:00 +3°C° 0 mm 2 m/S 764 mmHg 93%
    14:00 +3°C° 0 mm 2 m/S 764 mmHg 93%
    15:00 +2°C° 0 mm 2 m/S 764 mmHg 93%
    16:00 +2°C° 0 mm 2 m/S 765 mmHg 93%
    17:00 +2°C° 0 mm 2 m/S 765 mmHg 92%
    18:00 0°C° 0 mm 3 m/S 766 mmHg 92%
    19:00 0°C° 0 mm 3 m/S 766 mmHg 91%
    20:00 0°C° 0 mm 3 m/S 767 mmHg 91%
    21:00 0°C° 0 mm 3 m/S 767 mmHg 90%
    22:00 0°C° 0 mm 3 m/S 767 mmHg 90%
    23:00 0°C° 0 mm 3 m/S 768 mmHg 91%

    übermorgen, 19 Dezember, Dienstag

    Zeit Temperatur Niederschläge Wind Luftdruck Luftfeuchtigkeit
    00:00 0°C° 0 mm 3 m/S 768 mmHg 91%
    01:00 0°C° 0 mm 3 m/S 768 mmHg 92%
    02:00 0°C° 0 mm 3 m/S 768 mmHg 92%
    03:00 0°C° 0 mm 3 m/S 769 mmHg 92%
    04:00 0°C° 0 mm 3 m/S 769 mmHg 93%
    05:00 0°C° 0 mm 3 m/S 769 mmHg 93%
    06:00 +1°C° 0 mm 3 m/S 769 mmHg 93%
    07:00 +1°C° 0 mm 3 m/S 770 mmHg 93%
    08:00 +1°C° 0 mm 3 m/S 770 mmHg 94%
    09:00 +2°C° 0 mm 3 m/S 770 mmHg 94%
    10:00 +2°C° 0 mm 3 m/S 771 mmHg 94%
    11:00 +3°C° 0,1 mm 3 m/S 771 mmHg 95%
    12:00 +3°C° 0,1 mm 4 m/S 771 mmHg 95%
    13:00 +4°C° 0,1 mm 4 m/S 771 mmHg 95%
    14:00 +4°C° 0,1 mm 4 m/S 771 mmHg 95%
    15:00 +4°C° 0,1 mm 4 m/S 770 mmHg 94%
    16:00 +4°C° 0,1 mm 4 m/S 770 mmHg 94%
    17:00 +4°C° 0,3 mm 4 m/S 770 mmHg 94%
    18:00 +3°C° 0,3 mm 5 m/S 770 mmHg 94%
    19:00 +3°C° 0,3 mm 5 m/S 770 mmHg 94%
    20:00 +5°C° 0,6 mm 5 m/S 770 mmHg 94%
    21:00 +5°C° 0,6 mm 5 m/S 770 mmHg 94%
    22:00 +5°C° 0,6 mm 5 m/S 770 mmHg 94%
    23:00 +5°C° 0,1 mm 5 m/S 770 mmHg 95%

    20 Dezember, Mittwoch

    Zeit Temperatur Niederschläge Wind Luftdruck Luftfeuchtigkeit
    00:00 +5°C° 0,1 mm 4 m/S 769 mmHg 95%
    01:00 +5°C° 0,1 mm 4 m/S 769 mmHg 96%
    02:00 +5°C° 0 mm 4 m/S 769 mmHg 96%
    03:00 +5°C° 0 mm 4 m/S 769 mmHg 96%
    04:00 +6°C° 0 mm 4 m/S 769 mmHg 96%
    05:00 +6°C° 0 mm 4 m/S 769 mmHg 97%
    06:00 +6°C° 0 mm 4 m/S 769 mmHg 97%
    07:00 +7°C° 0 mm 3 m/S 769 mmHg 97%
    08:00 +7°C° 0 mm 3 m/S 770 mmHg 97%
    09:00 +7°C° 0 mm 3 m/S 770 mmHg 97%
    10:00 +6°C° 0 mm 4 m/S 770 mmHg 97%
    11:00 +7°C° 0 mm 4 m/S 770 mmHg 97%
    12:00 +7°C° 0 mm 4 m/S 770 mmHg 96%
    13:00 +7°C° 0 mm 4 m/S 769 mmHg 95%
    14:00 +7°C° 0 mm 4 m/S 769 mmHg 95%
    15:00 +7°C° 0 mm 4 m/S 769 mmHg 96%
    16:00 +7°C° 0 mm 4 m/S 769 mmHg 96%
    17:00 +7°C° 0,1 mm 4 m/S 769 mmHg 96%
    18:00 +8°C° 0,1 mm 5 m/S 769 mmHg 95%
    19:00 +8°C° 0,1 mm 5 m/S 769 mmHg 95%
    20:00 +8°C° 0,1 mm 5 m/S 769 mmHg 95%
    21:00 +8°C° 0,1 mm 5 m/S 769 mmHg 94%
    22:00 +8°C° 0,1 mm 6 m/S 769 mmHg 94%
    23:00 +8°C° 0,2 mm 5 m/S 768 mmHg 94%

    21 Dezember, Donnerstag

    Zeit Temperatur Niederschläge Wind Luftdruck Luftfeuchtigkeit
    00:00 +8°C° 0,2 mm 5 m/S 768 mmHg 94%
    01:00 +8°C° 0,2 mm 5 m/S 768 mmHg 95%
    02:00 +8°C° 0,3 mm 5 m/S 768 mmHg 95%
    03:00 +8°C° 0,3 mm 5 m/S 768 mmHg 95%
    04:00 +8°C° 0,3 mm 5 m/S 768 mmHg 95%
    05:00 +7°C° 0,1 mm 4 m/S 767 mmHg 95%
    06:00 +7°C° 0,1 mm 4 m/S 767 mmHg 95%
    07:00 +7°C° 0,1 mm 4 m/S 767 mmHg 95%
    08:00 +7°C° 0,1 mm 4 m/S 767 mmHg 95%
    09:00 +8°C° 0,1 mm 4 m/S 767 mmHg 95%
    10:00 +8°C° 0,1 mm 4 m/S 767 mmHg 95%
    11:00 +8°C° 0,1 mm 4 m/S 767 mmHg 94%
    12:00 +8°C° 0,1 mm 4 m/S 766 mmHg 94%
    13:00 +8°C° 0,1 mm 5 m/S 766 mmHg 93%
    14:00 +8°C° 0,3 mm 5 m/S 766 mmHg 93%
    15:00 +8°C° 0,3 mm 4 m/S 765 mmHg 94%
    16:00 +8°C° 0,3 mm 4 m/S 765 mmHg 95%
    17:00 +8°C° 0,5 mm 4 m/S 764 mmHg 95%
    18:00 +8°C° 0,5 mm 4 m/S 764 mmHg 95%
    19:00 +8°C° 0,5 mm 4 m/S 764 mmHg 96%
    20:00 +7°C° 1,9 mm 4 m/S 763 mmHg 96%
    21:00 +7°C° 1,9 mm 4 m/S 763 mmHg 95%
    22:00 +7°C° 1,9 mm 5 m/S 763 mmHg 95%
    23:00 +7°C° 0,9 mm 5 m/S 763 mmHg 93%

    22 Dezember, Freitag

    Zeit Temperatur Niederschläge Wind Luftdruck Luftfeuchtigkeit
    00:00 +5°C° 0,9 mm 6 m/S 763 mmHg 91%
    01:00 +4°C° 0,9 mm 6 m/S 763 mmHg 88%
    02:00 +4°C° 0,3 mm 7 m/S 763 mmHg 85%
    03:00 +4°C° 0,3 mm 7 m/S 764 mmHg 82%
    04:00 +3°C° 0,3 mm 7 m/S 764 mmHg 79%
    05:00 +3°C° 0 mm 7 m/S 765 mmHg 80%
    06:00 +3°C° 0 mm 7 m/S 765 mmHg 80%
    07:00 +3°C° 0 mm 7 m/S 766 mmHg 81%
    08:00 +3°C° 0 mm 7 m/S 766 mmHg 79%
    09:00 +3°C° 0 mm 7 m/S 767 mmHg 78%
    10:00 +2°C° 0 mm 8 m/S 767 mmHg 77%
    11:00 +4°C° 0 mm 8 m/S 768 mmHg 74%
    12:00 +4°C° 0 mm 8 m/S 768 mmHg 72%
    13:00 +5°C° 0 mm 8 m/S 769 mmHg 70%
    14:00 +4°C° 0 mm 8 m/S 769 mmHg 73%
    15:00 +4°C° 0 mm 7 m/S 769 mmHg 75%
    16:00 +3°C° 0 mm 7 m/S 769 mmHg 78%
    17:00 +4°C° 0,1 mm 7 m/S 769 mmHg 80%
    18:00 +4°C° 0,1 mm 8 m/S 769 mmHg 83%
    19:00 +5°C° 0,1 mm 9 m/S 768 mmHg 85%
    20:00 +5°C° 0,3 mm 9 m/S 768 mmHg 85%
    21:00 +5°C° 0,3 mm 9 m/S 768 mmHg 84%
    22:00 +5°C° 0,3 mm 10 m/S 768 mmHg 84%
    23:00 +5°C° 0,2 mm 10 m/S 768 mmHg 84%
    Mehr zeigen

    XHprof extension not loaded